Volver al catálogo

TITAN 3C TRANSTAGE DEB

ActivoMEO
NORAD 38702·DEBRIS·🇺🇸 United States

Lanzado Sep 26, 1968 desde Cape Canaveral Space Force Station

Loading…

Próximos Pases (próximas 24 horas)

TLE

ActualizadoSource: Space-Track

Época: Sep 13, 2026, 15:18 UTC

1 38702U 68081AC  26256.63809172 -.00000003  00000-0  00000+0 0  9993
2 38702   1.3131  52.2025 0222295  37.8872 324.5559  1.02228046 70627

Sigue TITAN 3C TRANSTAGE DEB en tiempo real con AllMySat

Download on the App Store